AirNav   Bose A20 Aviation Headset
 
 1643 users online  

1D6 Hector Municipal Airport
Hector, Minnesota, USA

GOING TO HECTOR?


FAA INFORMATION EFFECTIVE 11 OCTOBER 2018

Location

FAA Identifier: 1D6
Lat/Long: 44-43-52.3350N / 094-42-42.8350W
44-43.872250N / 094-42.713917W
44.7312042 / -94.7118986
(estimated)
Elevation: 1077 ft. / 328.3 m (surveyed)
Variation: 04E (1985)
From city: 1 mile S of HECTOR, MN
Time zone: UTC -5 (UTC -6 during Standard Time)
Zip code: 55342

Airport Operations

Airport use: Open to the public
Activation date: 03/1942
Control tower: no
ARTCC: MINNEAPOLIS CENTER
FSS: PRINCETON FLIGHT SERVICE STATION
NOTAMs facility: PNM (NOTAM-D service available)
Attendance: UNATTDD
FOR SVC CALL 320-848-2745.
Wind indicator: lighted
Segmented circle: no
Lights: SS-SR

Airport Communications

CTAF/UNICOM: 122.8
WX AWOS-3 at OVL (14 nm W): 119.275 (320-523-5924)
WX AWOS-3 at HCD (16 nm NE): 118.525 (320-587-3343)
WX ASOS at RWF (19 nm SW): 126.575 (507-644-3564)

Nearby radio navigation aids

VOR radial/distance  VOR name  Freq  Var
RWFr041/23.8REDWOOD FALLS VOR/DME113.3007E
DWNr200/24.0DARWIN VORTAC109.0007E
BDHr139/29.1WILLMAR VOR/DME113.7004E

 
NDB name  Hdg/Dist  Freq  Var  ID
GLENCOE263/26.740703EGYL --. -.-- .-..

Airport Services

Fuel available: 100LL
FOR FUEL CALL 320-848-2745.
Parking: tiedowns
Airframe service: NONE
Powerplant service: NONE
Bottled oxygen: NONE
Bulk oxygen: NONE

Runway Information

Runway 12/30

Dimensions: 2776 x 50 ft. / 846 x 15 m
Surface: asphalt, in good condition
Weight bearing capacity: 
Single wheel: 13.0
Double wheel: 18.0
Runway edge lights: non-standard
NSTD LGTS MOUNTED IN YELLOW CONES.
RUNWAY 12  RUNWAY 30
Latitude: 44-44.006167N44-43.738333N
Longitude: 094-42.973333W094-42.454500W
Elevation: 1078.0 ft.1077.0 ft.
Gradient: 0.2%0.2%
Traffic pattern: leftleft
Runway heading: 122 magnetic, 126 true302 magnetic, 306 true
Markings: basic, in fair conditionbasic, in fair condition
Runway end identifier lights: nono
Obstructions: 15 ft. road, 500 ft. from runway, 150 ft. right of centerline, 20:1 slope to clearnone
RWY 30 HAS 1 FT CROPS 104 FT R AND 103 FT L.

Runway 5/23

Dimensions: 2580 x 165 ft. / 786 x 50 m
Surface: turf, in good condition
Runway edge markings: 05/23 MKD WITH YELLOW CONES.
Operational restrictions: RY 05/23 NOT PLOWED WINTER MONTHS.
RUNWAY 5  RUNWAY 23
Gradient: 0.1%0.1%
Traffic pattern: leftleft
Markings: nonenone
Runway end identifier lights: nono

Airport Ownership and Management from official FAA records

Ownership: Publicly-owned
Owner: CITY OF HECTOR
301 MAIN ST
HECTOR, MN 55342
Phone 320-848-2122
Manager: EDGAR NEWBERG
78980 ST HWY 4 SOUTH
HECTOR, MN 55342
Phone 320-848-2745

Airport Operational Statistics

Aircraft based on the field: 33
Single engine airplanes: 28
Helicopters: 1
Ultralights: 4
    
Aircraft operations: avg 134/week *
86% local general aviation
14% transient general aviation
* for 12-month period ending 23 June 2015

Additional Remarks

SEASONAL CROPS +8 FT IN PRIMARY SFC OF ALL RYS.

Instrument Procedures

There are no published instrument procedures at 1D6.

Some nearby airports with instrument procedures:

KOVL - Olivia Regional Airport (14 nm W)
KHCD - Hutchinson Municipal Airport-Butler Field (16 nm NE)
KRWF - Redwood Falls Municipal Airport (19 nm SW)
KLJF - Litchfield Municipal Airport (24 nm N)
KULM - New Ulm Municipal Airport (26 nm S)
 
Loc | Ops | Rwys | IFR | FBO | Links
Com | Nav | Svcs | Stats | Notes


 
Area around 1D6 (Hector Municipal Airport)
 
Road maps at: MapQuest Bing Google
 
Aerial photo
WARNING: Photo may not be current or correct
Aerial photo of 1D6 (Hector Municipal Airport)
Photo by Gary Bipes
Photo taken 16-Sep-2007

Do you have a better or more recent aerial photo of Hector Municipal Airport that you would like to share? If so, please send us your photo.

 
Sectional chart

 
Airport distance calculator
Flying to Hector Municipal Airport? Find the distance to fly.

From to 1D6

Sunrise and sunset
Times for 16-Oct-2018
 Local
(UTC-5)
 Zulu
(UTC)
Morning civil twilight07:0712:07
Sunrise07:3712:37
Sunset18:3223:32
Evening civil twilight19:0200:02

Current date and time
Zulu (UTC)  16-Oct-2018 17:41:59
Local (UTC-5)  16-Oct-2018 12:41:59
 
METAR
KOVL 
14nm W 
161715Z AUTO 31016G22KT 10SM CLR 11/00 A3006 RMK AO2
KHCD 
17nm NE 
161715Z AUTO 28015G19KT 10SM CLR 12/02 A3005 RMK AO2 T01210017
KRWF 
19nm SW 
161653Z AUTO 31012G23KT 10SM CLR 12/00 A3007 RMK AO2 SLP187 T01220000
KLJF 
24nm N 
161715Z AUTO 29013G19KT 10SM CLR 11/02 A3004 RMK AO2
KULM 
26nm S 
161715Z AUTO 31017G25KT 10SM CLR 12/00 A3005 RMK AO2
KGYL 
27nm E 
161715Z AUTO 27014G17KT 10SM CLR 13/01 A3003 RMK AO2 T01250010
TAF
KRWF 
19nm SW 
161120Z 1612/1712 26010KT P6SM BKN250 FM161500 31016G25KT P6SM SCT035 FM170000 30009KT P6SM SKC
NOTAMs
Click for the latest NOTAMs
NOTAMs are issued by the DoD/FAA and will open in a separate window not controlled by AirNav.

 

 
 

FBO, Fuel Providers, and Aircraft Ground Support

  
 Business Name 
 
 Contact 
 
 Services / Description 
 
Fuel Prices
 
Comments
  
Newberg Sky Spray 320-848-2745
no information available

If you are affiliated with Newberg Sky Spray and would like to show here your services, contact info, web link, logo, and more, click here
100LL
SS $4.35 
 Updated 09-Oct-2018
 
   write
SS=Self service
Update Fuel Prices
 

Would you like to see your business listed on this page?

 If your business provides an interesting product or service to pilots, flight crews, aircraft, or users of the Hector Municipal Airport, you should consider listing it here.  To start the listing process, click on the button below
 
Add a business
 

Other Pages about Hector Municipal Airport

Update a link
 
Copyright © AirNav, LLC. All rights reserved. Privacy Policy  Contact